map of MAN home
Great Circle Mapper logo
MAN - Airport
Location
City:  Manchester, England, United Kingdom
Name:Ringway International Airport
ICAO / IATA:EGCC / MAN

Details
Type:Airport (Aerodrome, Airfield)
Use:Public/Civil, International (customs port of entry)
Latitude:5321'13"N (53.353744)
Longitude:216'30"W (-2.274949)
Datum:WGS 1984
Elevation:257 ft (78 m)
Runways:2
Longest:10000 × 150 ft (3048 × 45.5 m), paved

Time
Time Zone:UTC+0 (DST+1)
Local Time:

Weather
METAR:EGCC 012350Z 16005KT 9000 NSC 15/15 Q1004 NOSIG
TAF:EGCC 012305Z 0200/0306 14005KT 9999 FEW014 SCT025
TEMPO 0200/0306 7000 RA PROB30
TEMPO 0200/0221 4000 +RA +SHRA BKN008 PROB30 0203/0208 1400 BR BKN003
BECMG 0221/0224 20010KT PROB30 0300/0306 4000 BR BKN008

Related Locations
Nearby:
Farthest:NZBA: 11826 mi / 19033 km
Balclutha, NZ

Find:

   beyond  
but within

Other Information
Maps:
NOTAMs:
Links:
Sources:

  
flag of United Kingdom
flag of England
  

Sectional Chart

Flight Planning
at skyvector.com

Satellite Image

Google Maps Satellite View

 

Copyright © 2004-2014 Karl L. Swartz. All rights reserved.
The Great Circle Mapper name and logo are trademarks of the Great Circle Mapper.
All other trademarks mentioned herein belong to their respective owners.
Please see credits for attibutions and further copyright information.

  Follow gcmap on Facebook Follow gcmap on Twitter

hCard Microformat

Geo Microformat